When you browse on this site, cookies collect data to enhance your experience and personalize the content and advertising you see.
Visit our Privacy Policy to learn more. By continuing to use the site, you agree to this use of cookies and data.
  • In United Kingdom
  • List of Countries
  • For 7 days
  • Water Temperature
  • Weather Map
  • Weather Widgets
  • user-avatar
    Login

    Hourly Weather Shapovalivka

    Today, 20 September, Friday

    Time Temperature Precipitation Wind Pressure Humidity
    00:00 +5°C° 0 mm 2 mps 750 mmHg 93%
    01:00 +4°C° 0 mm 3 mps 750 mmHg 94%
    02:00 +3°C° 0 mm 3 mps 750 mmHg 95%
    03:00 +4°C° 0 mm 2 mps 750 mmHg 95%
    04:00 +4°C° 0 mm 2 mps 750 mmHg 95%
    05:00 +4°C° 0 mm 2 mps 750 mmHg 95%
    06:00 +5°C° 0 mm 2 mps 750 mmHg 89%
    07:00 +5°C° 0 mm 3 mps 750 mmHg 83%
    08:00 +8°C° 0 mm 3 mps 750 mmHg 77%
    09:00 +9°C° 0.1 mm 3 mps 750 mmHg 70%
    10:00 +11°C° 0.1 mm 3 mps 750 mmHg 63%
    11:00 +13°C° 0.1 mm 4 mps 749 mmHg 55%
    12:00 +13°C° 0.5 mm 4 mps 749 mmHg 56%
    13:00 +13°C° 0.5 mm 5 mps 749 mmHg 56%
    14:00 +13°C° 0.5 mm 5 mps 749 mmHg 57%
    15:00 +12°C° 0.2 mm 5 mps 749 mmHg 62%
    16:00 +9°C° 0.2 mm 5 mps 749 mmHg 68%
    17:00 +8°C° 0.2 mm 5 mps 749 mmHg 74%
    18:00 +7°C° 0 mm 4 mps 749 mmHg 78%
    19:00 +6°C° 0 mm 4 mps 750 mmHg 81%
    20:00 +5°C° 0 mm 3 mps 750 mmHg 85%
    21:00 +5°C° 0 mm 3 mps 750 mmHg 87%
    22:00 +4°C° 0 mm 3 mps 750 mmHg 89%
    23:00 +3°C° 0 mm 3 mps 750 mmHg 91%

    Tomorrow, 21 September, Saturday

    Time Temperature Precipitation Wind Pressure Humidity
    00:00 +3°C° 0 mm 3 mps 750 mmHg 92%
    01:00 +3°C° 0 mm 3 mps 750 mmHg 93%
    02:00 +3°C° 0 mm 3 mps 750 mmHg 94%
    03:00 +3°C° 0 mm 3 mps 751 mmHg 95%
    04:00 +2°C° 0 mm 3 mps 751 mmHg 95%
    05:00 +2°C° 0 mm 3 mps 751 mmHg 96%
    06:00 +3°C° 0 mm 3 mps 751 mmHg 91%
    07:00 +4°C° 0 mm 4 mps 752 mmHg 86%
    08:00 +4°C° 0 mm 4 mps 752 mmHg 80%
    09:00 +6°C° 0 mm 4 mps 752 mmHg 69%
    10:00 +7°C° 0 mm 4 mps 752 mmHg 58%
    11:00 +9°C° 0 mm 5 mps 752 mmHg 46%
    12:00 +11°C° 0 mm 4 mps 752 mmHg 44%
    13:00 +11°C° 0 mm 4 mps 751 mmHg 41%
    14:00 +12°C° 0 mm 4 mps 751 mmHg 38%
    15:00 +11°C° 0 mm 3 mps 751 mmHg 40%
    16:00 +12°C° 0 mm 2 mps 751 mmHg 42%
    17:00 +11°C° 0 mm 1 mps 751 mmHg 44%
    18:00 +10°C° 0 mm 2 mps 750 mmHg 51%
    19:00 +9°C° 0 mm 2 mps 750 mmHg 57%
    20:00 +8°C° 0 mm 2 mps 750 mmHg 63%
    21:00 +8°C° 0 mm 3 mps 749 mmHg 71%
    22:00 +8°C° 0 mm 3 mps 749 mmHg 80%
    23:00 +8°C° 0 mm 3 mps 749 mmHg 89%

    Day after tomorrow, 22 September, Sunday

    Time Temperature Precipitation Wind Pressure Humidity
    00:00 +7°C° 0 mm 4 mps 748 mmHg 90%
    01:00 +7°C° 0 mm 4 mps 748 mmHg 92%
    02:00 +8°C° 0 mm 4 mps 747 mmHg 94%
    03:00 +10°C° 0.3 mm 4 mps 747 mmHg 93%
    04:00 +10°C° 0.3 mm 5 mps 747 mmHg 93%
    05:00 +10°C° 0.3 mm 6 mps 747 mmHg 92%
    06:00 +11°C° 0.1 mm 7 mps 746 mmHg 90%
    07:00 +11°C° 0.1 mm 7 mps 746 mmHg 88%
    08:00 +11°C° 0.1 mm 8 mps 746 mmHg 86%
    09:00 +12°C° 0.1 mm 8 mps 747 mmHg 80%
    10:00 +12°C° 0.1 mm 8 mps 747 mmHg 74%
    11:00 +13°C° 0.1 mm 8 mps 747 mmHg 69%
    12:00 +15°C° 0 mm 8 mps 747 mmHg 66%
    13:00 +15°C° 0 mm 8 mps 747 mmHg 64%
    14:00 +16°C° 0 mm 8 mps 747 mmHg 62%
    15:00 +15°C° 0 mm 7 mps 747 mmHg 63%
    16:00 +15°C° 0 mm 6 mps 747 mmHg 64%
    17:00 +14°C° 0 mm 6 mps 746 mmHg 64%
    18:00 +14°C° 0 mm 5 mps 747 mmHg 67%
    19:00 +14°C° 0 mm 5 mps 747 mmHg 70%
    20:00 +13°C° 0 mm 4 mps 748 mmHg 73%
    21:00 +12°C° 0 mm 4 mps 748 mmHg 72%
    22:00 +11°C° 0 mm 3 mps 749 mmHg 71%
    23:00 +10°C° 0 mm 3 mps 749 mmHg 71%

    23 September, Monday

    Time Temperature Precipitation Wind Pressure Humidity
    00:00 +9°C° 0 mm 3 mps 750 mmHg 71%
    01:00 +8°C° 0 mm 3 mps 750 mmHg 72%
    02:00 +7°C° 0 mm 2 mps 750 mmHg 73%
    03:00 +6°C° 0 mm 2 mps 751 mmHg 76%
    04:00 +5°C° 0 mm 2 mps 751 mmHg 80%
    05:00 +4°C° 0 mm 2 mps 752 mmHg 83%
    06:00 +5°C° 0 mm 2 mps 752 mmHg 77%
    07:00 +6°C° 0 mm 2 mps 752 mmHg 72%
    08:00 +7°C° 0 mm 2 mps 752 mmHg 66%
    09:00 +8°C° 0 mm 2 mps 752 mmHg 59%
    10:00 +11°C° 0 mm 1 mps 753 mmHg 52%
    11:00 +12°C° 0 mm 1 mps 753 mmHg 44%
    12:00 +12°C° 0 mm 1 mps 753 mmHg 42%
    13:00 +13°C° 0 mm 1 mps 752 mmHg 40%
    14:00 +13°C° 0 mm 1 mps 752 mmHg 37%
    15:00 +13°C° 0 mm 1 mps 751 mmHg 40%
    16:00 +12°C° 0 mm 1 mps 751 mmHg 42%
    17:00 +11°C° 0 mm 1 mps 751 mmHg 44%
    18:00 +11°C° 0 mm 1 mps 751 mmHg 45%
    19:00 +9°C° 0 mm 2 mps 751 mmHg 46%
    20:00 +8°C° 0 mm 2 mps 750 mmHg 47%
    21:00 +9°C° 0 mm 2 mps 750 mmHg 45%
    22:00 +9°C° 0 mm 2 mps 750 mmHg 44%
    23:00 +10°C° 0 mm 3 mps 750 mmHg 43%

    24 September, Tuesday

    Time Temperature Precipitation Wind Pressure Humidity
    00:00 +10°C° 0.2 mm 3 mps 749 mmHg 48%
    01:00 +9°C° 0.2 mm 3 mps 749 mmHg 53%
    02:00 +9°C° 0.2 mm 3 mps 749 mmHg 58%
    03:00 +8°C° 0 mm 3 mps 749 mmHg 63%
    04:00 +7°C° 0 mm 4 mps 748 mmHg 68%
    05:00 +6°C° 0 mm 4 mps 748 mmHg 74%
    06:00 +6°C° 0 mm 4 mps 748 mmHg 74%
    07:00 +7°C° 0 mm 4 mps 748 mmHg 75%
    08:00 +7°C° 0 mm 5 mps 748 mmHg 76%
    09:00 +8°C° 0 mm 5 mps 748 mmHg 73%
    10:00 +9°C° 0 mm 5 mps 749 mmHg 69%
    11:00 +10°C° 0 mm 5 mps 749 mmHg 66%
    12:00 +12°C° 0 mm 5 mps 749 mmHg 64%
    13:00 +12°C° 0 mm 5 mps 749 mmHg 61%
    14:00 +13°C° 0 mm 5 mps 749 mmHg 59%
    15:00 +12°C° 0 mm 5 mps 749 mmHg 64%
    16:00 +9°C° 0 mm 5 mps 749 mmHg 69%
    17:00 +8°C° 0 mm 6 mps 749 mmHg 74%
    18:00 +7°C° 0 mm 5 mps 749 mmHg 76%
    19:00 +7°C° 0 mm 5 mps 749 mmHg 78%
    20:00 +6°C° 0 mm 5 mps 750 mmHg 80%
    21:00 +6°C° 0 mm 5 mps 750 mmHg 81%
    22:00 +6°C° 0 mm 4 mps 750 mmHg 82%
    23:00 +5°C° 0 mm 4 mps 750 mmHg 83%

    25 September, Wednesday

    Time Temperature Precipitation Wind Pressure Humidity
    00:00 +5°C° 0 mm 4 mps 750 mmHg 82%
    01:00 +5°C° 0 mm 4 mps 750 mmHg 82%
    02:00 +5°C° 0 mm 4 mps 750 mmHg 82%
    03:00 +5°C° 0 mm 4 mps 750 mmHg 83%
    04:00 +5°C° 0 mm 4 mps 750 mmHg 84%
    05:00 +4°C° 0 mm 4 mps 750 mmHg 85%
    06:00 +5°C° 0 mm 4 mps 750 mmHg 82%
    07:00 +5°C° 0 mm 4 mps 750 mmHg 80%
    08:00 +6°C° 0 mm 4 mps 750 mmHg 77%
    09:00 +8°C° 0 mm 3 mps 751 mmHg 71%
    10:00 +10°C° 0 mm 3 mps 751 mmHg 66%
    11:00 +12°C° 0 mm 3 mps 751 mmHg 60%
    12:00 +13°C° 0 mm 3 mps 750 mmHg 59%
    13:00 +14°C° 0 mm 2 mps 750 mmHg 57%
    14:00 +15°C° 0 mm 2 mps 750 mmHg 55%
    15:00 +14°C° 0 mm 2 mps 750 mmHg 59%
    16:00 +14°C° 0 mm 2 mps 750 mmHg 62%
    17:00 +13°C° 0 mm 2 mps 750 mmHg 65%
    18:00 +12°C° 0 mm 2 mps 750 mmHg 70%
    19:00 +9°C° 0 mm 3 mps 750 mmHg 75%
    20:00 +8°C° 0 mm 3 mps 750 mmHg 80%
    21:00 +8°C° 0 mm 3 mps 750 mmHg 82%
    22:00 +7°C° 0 mm 3 mps 750 mmHg 84%
    23:00 +7°C° 0 mm 3 mps 750 mmHg 86%
    Show more